Other Public Products
Issued by NWS Grand Forks, ND

Home | Current Version | Previous Version | Graphics & Text | Print | Product List | Glossary On
Versions: 1 2 3 4 5 6 7 8 9 10 11 12 13 14 15 16 17 18 19 20 21 22 23 24 25 26 27 28 29 30 31 32 33 34 35 36 37 38 39 40 41 42 43 44 45 46 47 48 49 50
000
FPUS83 KFGF 011831
OPUFGF
PRAIRIE TO PINES WEATHER ROUNDUP
NATIONAL WEATHER SERVICE EASTERN NORTH DAKOTA/GRAND FORKS ND
100 PM CDT FRI AUG 01 2014

 **SATELLITE DATA USED TO AUGMENT SKY COVER AT AUTOMATED STATIONS**
 *****  WEATHER ACROSS EASTERN NORTH DAKOTA  *****

CITY           SKY/WX    TMP DP  RH WIND       PRES   REMARKS
GRAND FORKS    MOSUNNY   80  59  48 NE7       30.07F
6HR MIN TEMP:  58; 6HR MAX TEMP:  80;

GRAND FORKS AF MOSUNNY   79  60  52 N5        30.09F
GRAND CITY NWS   N/A     79 N/A N/A N7          N/A
BUXTON           N/A     82  59  45 N9          N/A
DEVILS LAKE    SUNNY     79  63  57 SE7       30.08F
6HR MIN TEMP:  61; 6HR MAX TEMP:  79;

FARGO          SUNNY     82  61  48 N10       30.07F
6HR MIN TEMP:  60; 6HR MAX TEMP:  82;

WAHPETON ARPT  CLEAR     81  55  41 NW7       30.08S
$$

 *****  WEATHER ACROSS CENTRAL AND WESTERN NORTH DAKOTA  *****

CITY           SKY/WX    TMP DP  RH WIND       PRES   REMARKS
JAMESTOWN      SUNNY     81  59  47 NE6       30.09S
6HR MIN TEMP:  60; 6HR MAX TEMP:  81;

BISMARCK       SUNNY     86  57  37 S10       30.07F
6HR MIN TEMP:  58; 6HR MAX TEMP:  87;

MINOT          MOSUNNY   79  60  52 E7        30.09S
6HR MIN TEMP:  57; 6HR MAX TEMP:  80;

MINOT AFB      MOSUNNY   80  61  53 E6        30.09S
6HR MIN TEMP:  55; 6HR MAX TEMP:  80;

GARRISON         N/A     81  62  52 SE7       30.09S
6HR MIN TEMP:  59; 6HR MAX TEMP:  81;

WILLISTON      CLOUDY    75  61  61 NE6       30.11R
6HR MIN TEMP:  66; 6HR MAX TEMP:  75; 6HR PCP:  0.04;

DICKINSON      CLOUDY    79  60  52 NE10      30.08R
6HR MIN TEMP:  58; 6HR MAX TEMP:  79;

HETTINGER      CLOUDY    79  57  46 E7        30.07F
6HR MIN TEMP:  50; 6HR MAX TEMP:  79;

$$

 *****  OTHER OBSERVATIONS NORTHEAST NORTH DAKOTA  *****

CITY           SKY/WX    TMP DP  RH WIND       PRES   REMARKS
WALHALLA       FAIR      79  63  57 NE6         N/A
LANGDON        FAIR      81  57  44 NW3       30.11S
CAVALIER       FAIR      81  61  50 W5        30.08S
GRAFTON        FAIR      79  59  50 NE6       30.08S
CANDO          FAIR      79  59  50 NE3       30.11S
FORT TOTTEN      N/A     80  62  54 NE5       29.95S
ROLLA            N/A     77  57  50 S6        30.13S
RUGBY          FAIR      77  63  61 E7        30.10S
 ***** THE ABOVE OBSERVATIONS ARE NON NWS ARE NOT QUALITY
        CONTROLLED AND MAY MIS-REPORT RAIN FOR SNOW...
$$

 *****  OTHER OBSERVATIONS SOUTHEAST NORTH DAKOTA *****

CITY           SKY/WX    TMP DP  RH WIND       PRES   REMARKS
COOPERSTOWN    NOT AVBL
VALLEY CITY    FAIR      81  59  47 E8        30.09F
OAKES          NOT AVBL
GWINNER        PTCLDY    82  59  44 N7        30.10S
BUFFALO          N/A     81  56  41 E5          N/A
WYNDMERE       NOT AVBL
 ***** THE ABOVE OBSERVATIONS ARE NON NWS ARE NOT QUALITY
       CONTROLLED AND MAY MIS-REPORT RAIN FOR SNOW...
$$

  *****  WEATHER ACROSS NORTHERN MINNESOTA  *****

CITY           SKY/WX    TMP DP  RH WIND       PRES   REMARKS
FLAG ISLAND    SUNNY     73  48  40 CALM      30.07R
WARROAD        SUNNY     75  57  53 E6        30.08F
ROSEAU         SUNNY     79  57  47 N6        30.08S
HALLOCK        MOSUNNY   79  57  47 NW5       30.07F
THF RVR FALLS  SUNNY     77  54  44 N7        30.09S
HALSTAD          N/A     81  55  40 N10         N/A
FOSSTON        MOSUNNY   79  61  53 N8        30.09S
BAUDETTE       SUNNY     78  50  37 N10       30.08S
6HR MIN TEMP:  54; 6HR MAX TEMP:  78;

WASKISH        SUNNY     77  63  61 CALM      30.07S
CROOKSTON      SUNNY     77  61  57 N7        30.08F
$$
  *****  WEATHER ACROSS CENTRAL AND WEST MINNESOTA  *****

CITY           SKY/WX    TMP DP  RH WIND       PRES   REMARKS
BEMIDJI        MOSUNNY   77  56  47 N7        30.07S
PARK RAPIDS    MOSUNNY   79  54  41 W7        30.08S
6HR MIN TEMP:  60; 6HR MAX TEMP:  79;

WADENA         MOSUNNY   79  61  53 NW7       30.08S
DETROIT LAKES  SUNNY     79  55  44 N8        30.10F
MOORHEAD       SUNNY     79  63  57 N8        30.08F
FERGUS FALLS   SUNNY     81  57  44 NW6       30.06F
ELBOW LAKE     FAIR      79  63  58 NW6       30.08F
6HR MIN TEMP:  60; 6HR MAX TEMP:  78;

MORRIS MN      SUNNY     82  63  51 NW7       30.08F
STAPLES        MOSUNNY   79  57  47 W8        30.08R
WHEATON        SUNNY     79  61  53 NW7       30.10S
$$
  *****  WEATHER ELSEWHERE ACROSS MINNESOTA  *****

CITY           SKY/WX    TMP DP  RH WIND       PRES   REMARKS
DULUTH         MOSUNNY   74  58  57 S9        30.08R
6HR MIN TEMP:  58; 6HR MAX TEMP:  75;

INTRNTL FALLS  SUNNY     76  53  44 NW5       30.06F
6HR MIN TEMP:  50; 6HR MAX TEMP:  76;

ELY            MOSUNNY   73  52  46 CALM      30.07S
CLOQUET        SUNNY     75  57  53 S5        30.08S
BRAINERD       SUNNY     72  64  76 CALM      30.08F
6HR MIN TEMP:  52; 6HR MAX TEMP:  78; 6HR PCP:  0.01;

HIBBING        PTSUNNY   80  57  45 NW3       30.06S
6HR MIN TEMP:  49; 6HR MAX TEMP:  80;

ALEXANDRIA     MOSUNNY   81  58  45 NW8       30.10S
6HR MIN TEMP:  62; 6HR MAX TEMP:  81;

SAINT CLOUD    MOSUNNY   84  57  39 CALM      30.07S
6HR MIN TEMP:  59; 6HR MAX TEMP:  85;

MINNEAPOLIS    PTSUNNY   81  58  45 W7        30.07R
6HR MIN TEMP:  65; 6HR MAX TEMP:  82;

$$

  *****  WEATHER ACROSS SOUTH DAKOTA  *****

CITY           SKY/WX    TMP DP  RH WIND       PRES   REMARKS
SIOUX FALLS    MOSUNNY   80  57  45 NW3       30.12S
6HR MIN TEMP:  54; 6HR MAX TEMP:  81;

BROOKINGS      NOT AVBL
WATERTOWN      MOSUNNY   79  56  45 CALM      30.11S
6HR MIN TEMP:  54; 6HR MAX TEMP:  79;

HURON          SUNNY     82  57  42 MISG      30.09S
6HR MIN TEMP:  55; 6HR MAX TEMP:  82;

SISSETON         N/A     83  62  49 N7        30.08S
ABERDEEN       SUNNY     81  53  37 E6        30.09S
6HR MIN TEMP:  52; 6HR MAX TEMP:  81;

MITCHELL       SUNNY     81  60  48 SE7       30.11S
PIERRE         SUNNY     88  59  37 SE13      30.05S
6HR MIN TEMP:  60; 6HR MAX TEMP:  88;

MOBRIDGE       SUNNY     84  60  44 SE12      30.04F
RAPID CITY     MOSUNNY   83  42  23 S15G24    30.10R THUNDER
6HR MIN TEMP:  59; 6HR MAX TEMP:  89;

$$

  *****  SOME WEATHER IN NEARBY STATES *****

CITY           SKY/WX    TMP DP  RH WIND       PRES   REMARKS
GLASGOW MT     SUNNY     85  54  34 VRB6      30.09F
6HR MIN TEMP:  63; 6HR MAX TEMP:  85;

GREAT FALLS MT PTSUNNY   79  54  41 VRB5      30.21S
6HR MIN TEMP:  53; 6HR MAX TEMP:  79;

CHEYENNE WY    SUNNY     75  42  30 S8G16     30.32F
6HR MIN TEMP:  51; 6HR MAX TEMP:  75;

SCOTTSBLUFF NE SUNNY     85  50  29 N6        30.20F
6HR MIN TEMP:  52; 6HR MAX TEMP:  85;

OMAHA NE       MOSUNNY   79  63  57 E6        30.10R
6HR MIN TEMP:  66; 6HR MAX TEMP:  79;

DES MOINES IA  MOSUNNY   84  61  45 N6        30.09S
6HR MIN TEMP:  65; 6HR MAX TEMP:  84;

DAVENPORT IA   SUNNY     77  62  59 W3        30.09F
6HR MIN TEMP:  65; 6HR MAX TEMP:  80;

CHICAGO IL     PTSUNNY   82  55  39 W8        30.07F
6HR MIN TEMP:  66; 6HR MAX TEMP:  83;

EAU CLAIRE WI  PTSUNNY   80  62  54 NW6       30.05F
6HR MIN TEMP:  63; 6HR MAX TEMP:  81;

LA CROSSE WI   SUNNY     82  59  45 SW5       30.07S
6HR MIN TEMP:  64; 6HR MAX TEMP:  82;

$$

  *****  SOME NATIONAL WEATHER *****

CITY           SKY/WX    TMP DP  RH WIND       PRES   REMARKS
LA GUARDIA NY  CLOUDY    84  64  50 S10G18    30.18S
6HR MIN TEMP:  75; 6HR MAX TEMP:  86;




USA.gov is the U.S. government's official web portal to all federal, state and local government web resources and services.